KG0HG Weather Reports


time (UTC)temp
C
wind
direction
speed
KPH
gust
KPH
rain 1hr
cm
rain 24hr
cm
rain mn
cm
humidity
%
barometer
mb
20260505140311 8 42 1.6 3.2 0.00 1.52 1.52 93 1012.6
20260505130234 8 79 0.0 0.0 0.00 1.45 1.45 93 1010.4
20260505124725 8 85 0.0 0.0 0.18 1.45 1.45 93 1010.2
20260505124222 8 84 0.0 0.0 0.00 1.42 1.42 93 1010.2
20260505123717 8 67 0.0 0.0 0.00 1.42 1.42 92 1010.2
20260505123214 9 67 0.0 0.0 0.00 1.42 1.42 92 1010.4
20260505122711 8 67 0.0 0.0 0.00 1.42 1.42 92 1010.2
20260505122208 8 67 0.0 0.0 0.00 1.42 1.42 92 1010.0
20260505121705 8 67 0.0 1.6 0.00 1.42 1.42 92 1010.2
20260505121201 8 66 0.0 1.6 0.00 1.42 1.42 91 1010.0
20260505120657 8 66 1.6 3.2 0.00 1.42 1.42 90 1009.7
20260505120154 8 65 0.0 0.0 0.13 1.42 1.42 89 1010.2
20260505115647 8 64 0.0 1.6 0.13 1.42 1.42 88 1010.4
20260505115146 9 68 0.0 0.0 0.00 1.40 1.40 87 1010.2
20260505114642 9 30 0.0 3.2 0.00 1.40 1.40 86 1009.9
20260505114139 9 65 0.0 3.2 0.00 1.40 1.40 87 1009.7
20260505113635 8 65 0.0 0.0 0.00 1.40 1.40 88 1010.0
20260505113132 8 65 1.6 3.2 0.00 1.40 1.40 90 1009.7
20260505112628 8 70 0.0 0.0 0.00 1.40 1.40 90 1009.6
20260505112126 8 70 0.0 0.0 0.00 1.40 1.40 90 1009.6
20260505111620 8 70 0.0 0.0 0.00 1.40 1.40 91 1009.5
20260505111116 8 70 0.0 0.0 0.00 1.40 1.40 91 1009.8
20260505110612 8 70 0.0 0.0 0.00 1.40 1.40 91 1009.9
20260505110109 8 69 0.0 0.0 0.00 1.40 1.40 91 1009.7
20260505102045 8 33 0.0 3.2 0.00 1.40 1.40 89 1009.8
20260505101543 8 70 0.0 3.2 0.00 1.40 1.40 90 1009.9
20260505101039 8 48 0.0 3.2 0.00 1.40 1.40 91 1009.8
20260505100536 8 43 1.6 1.6 0.00 1.40 1.40 91 1009.6
20260505100033 8 34 0.0 0.0 0.00 1.40 1.40 91 1010.0
20260505095529 8 26 0.0 1.6 0.00 1.40 1.40 92 1009.6
20260505095026 8 69 0.0 1.6 0.00 1.40 1.40 92 1009.6
20260505094522 8 75 1.6 3.2 0.00 1.40 1.40 92 1009.5
20260505094019 8 71 0.0 0.0 0.00 1.40 1.40 93 1009.4
20260505093515 8 76 0.0 3.2 0.00 1.40 1.40 92 1009.6
20260505093013 8 96 0.0 3.2 0.00 1.40 1.40 93 1009.3
20260505092510 8 123 1.6 3.2 0.00 1.40 1.40 94 1008.7
20260505092008 8 62 1.6 3.2 0.00 1.40 1.40 94 1008.7
20260505091505 8 25 3.2 3.2 0.00 1.40 1.40 94 1008.7
20260505091003 8 105 0.0 3.2 0.00 1.40 1.40 94 1008.6
20260505090501 8 91 3.2 4.8 0.00 1.40 1.40 94 1008.3
20260505085958 8 70 0.0 4.8 0.00 1.40 1.40 94 1008.1
20260505085456 8 29 3.2 11.3 0.00 1.40 1.40 94 1007.9
20260505084954 8 53 3.2 9.7 0.00 1.40 1.40 94 1007.8
20260505084452 8 306 9.7 11.3 0.30 1.40 1.40 94 1007.2
20260505083949 8 282 4.8 8.0 0.61 1.40 1.40 94 1005.1
20260505083446 8 57 1.6 9.7 0.61 1.35 1.35 94 1006.8
20260505082942 8 125 0.0 3.2 0.79 1.30 1.30 93 1008.4
20260505082438 8 26 1.6 4.8 0.79 1.24 1.24 93 1009.2
20260505081936 9 93 1.6 3.2 0.61 1.17 1.17 93 1009.3
20260505081432 9 85 0.0 3.2 0.61 1.12 1.12 92 1009.6
20260505080929 9 82 0.0 0.0 0.61 1.07 1.07 91 1009.9
20260505080425 10 81 0.0 1.6 0.79 1.02 1.02 90 1010.1
20260505075920 10 73 0.0 1.6 0.79 0.97 0.97 88 1010.1
20260505075418 10 61 0.0 0.0 0.48 0.86 0.86 84 1010.3
20260505074915 11 50 0.0 3.2 0.61 0.84 0.84 77 1010.1
20260505074412 12 353 4.8 8.0 0.30 0.79 0.79 70 1009.6
20260505073909 12 19 3.2 8.0 0.00 0.74 0.74 65 1009.5
20260505073407 13 295 9.7 11.3 0.00 0.74 0.74 60 1009.3
20260505072904 13 27 1.6 3.2 0.00 0.74 0.74 60 1008.7
20260505072400 13 24 1.6 4.8 0.00 0.74 0.74 59 1008.3
20260505071856 13 39 1.6 3.2 0.00 0.74 0.74 58 1007.8
20260505071353 13 100 0.0 4.8 0.00 0.74 0.74 61 1007.8
20260505070851 13 6 4.8 11.3 0.00 0.74 0.74 57 1007.8
20260505070347 13 26 0.0 3.2 0.00 0.74 0.74 58 1008.2
20260505065842 13 6 1.6 4.8 0.00 0.74 0.74 59 1008.2
20260505065339 12 238 4.8 9.7 0.00 0.74 0.74 62 1007.3
20260505064837 12 99 1.6 4.8 0.00 0.74 0.74 69 1006.8
20260505064333 12 22 0.0 4.8 0.00 0.74 0.74 74 1006.9
20260505063832 12 41 0.0 9.7 0.00 0.74 0.74 73 1006.8
20260505063327 12 30 8.0 11.3 0.00 0.74 0.74 76 1007.0
20260505062824 11 48 3.2 8.0 0.18 0.74 0.74 81 1006.7
20260505062322 11 40 1.6 14.5 0.18 0.74 0.74 87 1006.7
20260505061818 12 67 1.6 8.0 0.00 0.71 0.71 91 1006.4
20260505061316 12 39 0.0 0.0 0.00 0.71 0.71 93 1006.3
20260505060813 12 37 0.0 1.6 0.00 0.71 0.71 92 1006.3
20260505060310 12 83 0.0 1.6 0.00 0.71 0.71 92 1006.0
20260505055806 12 55 0.0 3.2 0.00 0.71 0.71 92 1005.8
20260505055303 12 19 0.0 1.6 0.00 0.71 0.71 92 1005.6
20260505054800 13 281 0.0 1.6 0.43 0.71 0.71 91 1005.5
20260505054257 13 281 0.0 1.6 1.19 0.71 0.71 90 1005.8
20260505053755 13 277 0.0 3.2 1.27 0.64 0.64 90 1005.8
20260505053252 14 121 1.6 1.6 1.19 0.51 0.51 90 1005.7
20260505052749 15 97 1.6 3.2 1.68 0.41 0.41 86 1006.5
20260505052246 15 69 3.2 4.8 1.85 0.30 0.30 81 1005.6
20260505051743 17 74 0.0 1.6 0.61 0.10 0.10 71 1005.5
20260505051241 18 0 3.2 4.8 0.00 0.00 0.00 59 1005.2
20260505050738 20 55 0.0 4.8 0.00 0.00 0.00 51 1004.8
20260505050237 21 32 4.8 4.8 0.00 0.00 0.00 50 1004.6
20260505041706 21 129 0.0 3.2 0.00 0.00 0.00 71 1003.6
20260505041203 21 142 1.6 4.8 0.00 0.00 0.00 71 1003.5
20260505040701 22 144 1.6 4.8 0.00 0.00 0.00 71 1003.7
20260505040158 21 160 6.4 8.0 0.00 0.00 0.00 71 1003.7
20260505035654 21 125 0.0 1.6 0.00 0.00 0.00 71 1003.8
20260505035150 21 134 1.6 3.2 0.00 0.00 0.00 71 1003.8
20260505034647 21 127 1.6 1.6 0.00 0.00 0.00 71 1003.7
20260505034145 21 125 1.6 1.6 0.00 0.00 0.00 72 1003.8
20260505033640 21 125 1.6 3.2 0.00 0.00 0.00 71 1004.0
20260505033139 21 125 0.0 3.2 0.00 0.00 0.00 72 1003.6
20260505032637 21 124 0.0 0.0 0.00 0.00 0.00 72 1003.7
20260505032133 21 124 0.0 0.0 0.00 0.00 0.00 73 1003.8
20260505031630 21 125 1.6 1.6 0.00 0.00 0.00 74 1003.5
20260505031126 21 125 0.0 0.0 0.00 0.00 0.00 73 1003.6
20260505030624 21 125 0.0 0.0 0.00 0.00 0.00 73 1003.7
20260505030119 21 125 0.0 0.0 0.00 0.00 0.00 73 1003.6
20260505025615 21 125 0.0 1.6 0.00 0.00 0.00 73 1003.6
20260505025114 20 115 0.0 0.0 0.00 0.00 0.00 76 1003.3
20260505024611 20 115 0.0 0.0 0.00 0.00 0.00 76 1003.5
20260505024108 20 115 0.0 0.0 0.00 0.00 0.00 76 1003.3
20260505023606 20 115 0.0 0.0 0.00 0.00 0.00 75 1003.0
20260505023103 20 115 0.0 0.0 0.00 0.00 0.00 75 1003.0
20260505022600 20 115 0.0 0.0 0.00 0.00 0.00 75 1002.7
20260505022057 20 115 0.0 0.0 0.00 0.00 0.00 74 1002.9
20260505021554 21 115 0.0 0.0 0.00 0.00 0.00 74 1002.7
20260505021051 21 115 0.0 0.0 0.00 0.00 0.00 73 1002.9
20260505020550 21 117 0.0 0.0 0.00 0.00 0.00 72 1002.6
20260505020048 21 118 0.0 0.0 0.00 0.00 0.00 70 1002.8
20260505015545 21 121 0.0 0.0 0.00 0.00 0.00 70 1002.4
20260505015041 21 125 0.0 0.0 0.00 0.00 0.00 69 1002.4
20260505014538 22 125 0.0 0.0 0.00 0.00 0.00 67 1002.5
20260505014035 22 125 0.0 0.0 0.00 0.00 0.00 66 1002.2
20260505013532 22 125 0.0 0.0 0.00 0.00 0.00 65 1002.1
20260505013030 22 125 0.0 0.0 0.00 0.00 0.00 65 1002.1
20260505012528 22 125 0.0 0.0 0.00 0.00 0.00 65 1001.9
20260505012025 22 125 0.0 0.0 0.00 0.00 0.00 64 1002.0
20260505011520 23 125 0.0 0.0 0.00 0.00 0.00 63 1002.1
20260505011017 23 125 0.0 0.0 0.00 0.00 0.00 61 1002.0
20260505010512 23 125 0.0 0.0 0.00 0.00 0.00 60 1002.1
20260505010010 24 125 0.0 0.0 0.00 0.00 0.00 59 1001.9
20260505005506 24 126 0.0 0.0 0.00 0.00 0.00 58 1001.9
20260505005004 24 126 0.0 0.0 0.00 0.00 0.00 57 1001.8
20260505004501 25 126 0.0 0.0 0.00 0.00 0.00 56 1001.7
20260505003957 25 126 0.0 0.0 0.00 0.00 0.00 55 1001.7
20260505003455 26 126 0.0 0.0 0.00 0.00 0.00 53 1001.6
20260505002950 26 126 0.0 0.0 0.00 0.00 0.00 52 1001.5
20260505002446 26 126 0.0 0.0 0.00 0.00 0.00 51 1001.5
20260505001945 26 127 0.0 0.0 0.00 0.00 0.00 50 1001.5
20260505001442 26 127 0.0 0.0 0.00 0.00 0.00 50 1001.4
20260505000939 26 127 0.0 0.0 0.00 0.00 0.00 50 1001.5
20260505000437 26 136 1.6 1.6 0.00 0.00 0.00 49 1001.5
20260504235934 26 132 1.6 3.2 0.00 0.00 0.00 48 1001.4
20260504235431 26 135 0.0 3.2 0.00 0.00 0.00 48 1001.5
20260504234927 26 148 3.2 8.0 0.00 0.00 0.00 47 1001.4
20260504234425 26 144 1.6 9.7 0.00 0.00 0.00 47 1001.4
20260504233921 26 139 3.2 4.8 0.00 0.00 0.00 47 1001.6
20260504233417 26 128 1.6 3.2 0.00 0.00 0.00 48 1001.5
20260504232914 27 139 3.2 4.8 0.00 0.00 0.00 46 1001.4
20260504232411 27 133 0.0 3.2 0.00 0.00 0.00 46 1001.4
20260504231908 27 153 4.8 12.9 0.00 0.00 0.00 45 1001.5
20260504231404 27 168 4.8 9.7 0.00 0.00 0.00 46 1001.6
20260504230901 27 144 4.8 8.0 0.00 0.00 0.00 46 1001.6
20260504230358 27 15 1.6 4.8 0.00 0.00 0.00 45 1001.4
20260504225857 27 263 4.8 8.0 0.00 0.00 0.00 44 1001.6
20260504225353 27 184 4.8 4.8 0.00 0.00 0.00 44 1001.6
20260504224851 27 147 4.8 8.0 0.00 0.00 0.00 44 1001.6
20260504224347 26 147 1.6 3.2 0.00 0.00 0.00 45 1001.7
20260504223844 26 147 1.6 8.0 0.00 0.00 0.00 45 1001.5
20260504223339 26 135 1.6 8.0 0.00 0.00 0.00 45 1001.7
20260504222836 26 149 3.2 4.8 0.00 0.00 0.00 46 1001.7
20260504222333 26 139 1.6 4.8 0.00 0.00 0.00 45 1001.8
20260504221832 26 177 4.8 8.0 0.00 0.00 0.00 45 1001.9
20260504221328 26 151 3.2 3.2 0.00 0.00 0.00 46 1001.8
20260504220825 26 159 4.8 8.0 0.00 0.00 0.00 45 1001.6
20260504220322 26 130 1.6 8.0 0.00 0.00 0.00 44 1002.0
20260504215819 26 243 4.8 4.8 0.00 0.00 0.00 44 1001.8
20260504215315 26 180 4.8 12.9 0.00 0.00 0.00 45 1001.8
20260504214811 27 145 3.2 11.3 0.00 0.00 0.00 43 1001.9
20260504214309 27 289 6.4 9.7 0.00 0.00 0.00 42 1001.8
20260504213805 27 191 4.8 12.9 0.00 0.00 0.00 41 1002.0
20260504213301 27 123 1.6 17.7 0.00 0.00 0.00 40 1001.9
20260504212758 27 282 3.2 16.1 0.00 0.00 0.00 42 1001.8
20260504212248 27 197 8.0 11.3 0.00 0.00 0.00 42 1001.9
20260504211746 27 151 8.0 11.3 0.00 0.00 0.00 44 1001.9
20260504211242 27 132 3.2 11.3 0.00 0.00 0.00 42 1001.9
20260504210740 27 125 8.0 12.9 0.00 0.00 0.00 43 1001.9
20260504210237 27 241 4.8 9.7 0.00 0.00 0.00 42 1002.0
20260504205734 27 275 8.0 12.9 0.00 0.00 0.00 41 1002.0
20260504205232 27 215 4.8 11.3 0.00 0.00 0.00 43 1002.0
20260504204730 27 149 3.2 9.7 0.00 0.00 0.00 44 1002.0
20260504204228 27 164 11.3 12.9 0.00 0.00 0.00 44 1002.0
20260504203727 27 139 1.6 9.7 0.00 0.00 0.00 44 1002.3
20260504203224 27 208 6.4 11.3 0.00 0.00 0.00 43 1002.2
20260504202724 27 191 4.8 9.7 0.00 0.00 0.00 42 1002.4
20260504202221 27 211 4.8 11.3 0.00 0.00 0.00 43 1002.0
20260504201718 27 153 4.8 16.1 0.00 0.00 0.00 42 1002.4
20260504201215 27 195 6.4 11.3 0.00 0.00 0.00 43 1002.4
20260504200713 26 123 1.6 9.7 0.00 0.00 0.00 44 1002.4
20260504200209 27 171 4.8 16.1 0.00 0.00 0.00 43 1002.6
20260504195705 27 158 8.0 12.9 0.00 0.00 0.00 43 1002.4
20260504195201 27 120 1.6 9.7 0.00 0.00 0.00 43 1002.3
20260504194659 27 212 6.4 16.1 0.00 0.00 0.00 43 1002.4
20260504194154 27 172 3.2 11.3 0.00 0.00 0.00 45 1002.4
20260504193651 27 137 4.8 9.7 0.00 0.00 0.00 44 1002.3
20260504193149 27 243 4.8 17.7 0.00 0.00 0.00 43 1002.4
20260504192647 26 147 6.4 8.0 0.00 0.00 0.00 44 1002.2
20260504192145 26 147 4.8 12.9 0.00 0.00 0.00 44 1002.6
20260504191643 26 263 6.4 17.7 0.00 0.00 0.00 43 1002.7
20260504191138 26 182 3.2 16.1 0.00 0.00 0.00 43 1002.7
20260504190635 25 151 4.8 14.5 0.00 0.00 0.00 44 1002.7
20260504190132 26 305 12.9 17.7 0.00 0.00 0.00 43 1002.6
20260504185628 26 183 6.4 12.9 0.00 0.00 0.00 43 1002.7
20260504185125 25 156 3.2 12.9 0.00 0.00 0.00 43 1002.8
20260504184621 25 146 8.0 14.5 0.00 0.00 0.00 44 1002.7
20260504184116 25 123 4.8 8.0 0.00 0.00 0.00 43 1002.6
20260504183613 25 189 6.4 11.3 0.00 0.00 0.00 44 1002.9
20260504183111 25 176 4.8 16.1 0.00 0.00 0.00 44 1002.7
20260504182608 25 173 11.3 20.9 0.00 0.00 0.00 45 1002.9
20260504182105 25 179 8.0 11.3 0.00 0.00 0.00 46 1002.7
20260504181603 25 194 4.8 16.1 0.00 0.00 0.00 44 1002.9
20260504181100 25 164 9.7 12.9 0.00 0.00 0.00 43 1003.0
20260504180559 25 153 3.2 14.5 0.00 0.00 0.00 45 1003.0
20260504180058 25 133 3.2 9.7 0.00 0.00 0.00 45 1002.8
20260504175555 25 180 3.2 16.1 0.00 0.00 0.00 45 1002.9
20260504175051 25 178 4.8 12.9 0.00 0.00 0.00 45 1003.0
20260504174549 24 230 4.8 8.0 0.00 0.00 0.00 45 1003.1
20260504174046 24 148 8.0 22.5 0.00 0.00 0.00 46 1003.2
20260504173542 24 156 4.8 9.7 0.00 0.00 0.00 46 1003.3
20260504173040 23 168 3.2 9.7 0.00 0.00 0.00 45 1003.5
20260504172536 23 283 8.0 12.9 0.00 0.00 0.00 46 1003.3
20260504172033 23 163 4.8 9.7 0.00 0.00 0.00 47 1003.3
20260504171530 24 209 4.8 8.0 0.00 0.00 0.00 45 1003.1
20260504171027 24 211 4.8 8.0 0.00 0.00 0.00 48 1003.2
20260504170522 24 121 4.8 9.7 0.00 0.00 0.00 47 1003.3
20260504160443 22 185 8.0 9.7 0.00 0.00 0.00 52 1003.6
20260504150906 21 112 6.4 17.7 0.00 0.00 0.00 55 1004.1
20260504150403 21 158 4.8 8.0 0.00 0.00 0.00 55 1004.1